CZ-3B DEB, 40851

Orbit data source: Space-Track

CZ-3B DEB, 40851 is space debris in HEO originally from a launch on Mon, 19 Dec 2011 UTC launched from the Xichang Space Center, China (XSC). Debris objects in space refer to the collection of defunct objects orbiting the Earth. Examples of debris include non-operational satellites, rocket bodies, and fragments generated from explosions, collisions, or faulty payload assembly.

Loading next visibility...
CZ-3B DEB details
Identifier
40851, 2011-077AG
Orbit
HEO
Last TLE update3 days ago
Origin
Flag of CNCASC (CN / PRC)
ManufacturerCALT
MissionSpacecraft
Bus & MotorUnknown
MassUnknown
Launch date (UTC)
2011-12-19 (13 years ago)
Launch vehicleUnknown
Launch site
Xichang Space Center, China (XSC)
Object type
Payload
Rocket body
Debris
Shape & HBRUnknown
Radar Cross SectionMedium (>0.1 m² and <1 m²)

Expand to show TLE details & history

TLE from 3 days ago
0 CZ-3B DEB
1 40851U 11077AG  25022.01564236 -.00000105  00000-0 -16809-2 0  9996
2 40851  25.1350 154.8103 7385546 136.3685 314.1707  1.90209517 76503
Epoch: 2025-01-22T00:22Z
Definitive object data (Epoch: 2025-01-22T00:22:31.499Z)
Latitude0.00002°
Longitude27.47674°
Altitude20,486.113 km
Speed3.897 km/s
True Right ascension10h 18m 53s
True Declination0° 00' 00"
Sunlit
Object was in daylight at TLE epoch
Visualization TLE readout
Latitude-6.78426°
Longitude12.12066°
Altitude30,633.857 km
Speed2.656 km/s
Apparent Right ascension08h 47m 23s
Apparent Declination-12° 43' 26"
Sunlit
Object is in daylight
Visualization observer readout
Local Sidereal Time15:31:19
Azimuth267.03° W
Elevation-16.491°
Doppler factor1
Orbital elements
Apogee altitude41,466.039 km
Perigee altitude816.713 km
Semi-major axis27,519.513 km
Eccentricity0.7385546
Inclination25.135°
RAAN154.8103°
Arg. of periapsis136.3685°
True anomaly223.67283°
Mean anomaly314.1707°
Eccentric anomaly271.87735°
Mean motion0.47543 °/min
BSTAR-0.0016809
Orbital period757.22 mins
Loading maneuver chart data...
Loading historical data...
Loading historical data...
Loading historical data...
Loading historical data...
Loading historical data...
Loading historical data...
Loading historical data...

CZ-3B DEB Visibility forecast

Observer location: undefined°, undefined

Span
Click to sort rows by Start time (UTC) header in descending order
Start Az.
Max El. time (UTC)
Max El. Az.
Max El.
End time (UTC)
End Az.
10 mins2025-01-24 16:51:10.332Z253.415° W2025-01-24 16:57:10.332Z215.651° SW18.657°2025-01-24 17:01:10.332Z163.379° S
|